Find Starlink 31533

NORAD ID: 59505 Int'l Des: 2024-071 Owner: SPXS Country: US Constellation: starlink operational
LEOCIRCULAR

現在のビュー

3D地球を読み込み中...

About Starlink 31533

Starlink 31533 (NORAD 59505) is a starlink constellation satellite (v2 mini) launched Apr 13, 2024 by SPXS of US. It operates in LEO, CIRCULAR orbit with a mass of 730.00 kg.

次回通過

Passes for default location (London). Set your location on the main map for personalized predictions.

高度履歴

Loading altitude history...

軌道要素

1 59505U 24071X 26263.50095765 .00000461 00000-0 26290-4 0 9998
2 59505 43.0022 320.0528 0001356 271.3680 88.7017 15.27578828137992
Epoch: Sep 20, 2026 • Age: 23 hours

現在のステータス

高度 492.8 km
遠地点 / 近地点 N/A
速度 7.62 km/s
衛星直下点 -36.10°S, 19.81°E
打ち上げ日 Apr 13, 2024
運用期間 2.4 years
タイプ internet

技術仕様

分類 Payload
質量 730.00 kg
乾燥質量 700.00 kg
長さ 0.30 m
スパン 29.00 m
形状 ? Box + pan
製造者 SPXS
バスタイプ Starlink V2M
フェーズステータス In Orbit
所有者/国 SPXS/US

Most Searched